Location: Pl�tzky
(52.0521°N, 11.8020°E)
Time: 11:11:38
(UTC+00:00)

ATLAS 2AS CENTAUR R/B - Pass Details

Date: 22 November 2019
Orbit: 926 x 1286 km, 63.7° (Epoch: 02 December)

Event Time Altitude Azimuth Distance (km) Brightness Sun altitude
Rises 17:20:26 0° 165° (SSE) 4,186 5.7 -19.0°
Reaches altitude 10° 17:24:02 10° 150° (SSE) 3,255 5.0 -19.6°
Enters shadow 17:27:27 19° 125° (SE) 2,675 4.4 -20.1°
